ハグ-ベル彗星

178P/Hug-Bell (1999)

English version
Home page
Updated on March 7, 2020

---------------------------------------------------------------------

・ プロフィール

符号 178P/1999 X1
発見日 1999年12月10日
発見光度 18.8等
発見者 Gary Hug, Graham E. Bell (Eskridge, KS)

・ 軌道要素

Epoch 1999 July 1.0 TT = JDT 2451360.5
T 1999 June 20.83452 TT                                 MPC
q   1.9367936            (2000.0)            P               Q
n   0.13999410     Peri.  296.91724     +0.74379907     -0.64231956
a   3.6733549      Node   103.65125     +0.66065088     +0.66447289
e   0.4727453      Incl.   10.96893     +0.10150551     +0.38197036
P   7.04

・ 星図

・ 光度変化

        m1 = 13.5 + 5 logΔ + 10.0 log r

---------------------------------------------------------------------

軌道要素はM.P.E.C. 2006-O03に掲載されたものです。
星図は StellaNavigator Ver.2.0 for Windows (アストロアーツ 編著 / アスキー出版局刊) で作成したものです。
光度グラフはComet for Windowsで作成したものです。

---------------------------------------------------------------------

Copyright(C) Seiichi Yoshida (comet@aerith.net). All rights reserved.